Location: Bednik
(45.3500°N, 16.3833°E)
Time: 15:24:08
(UTC+00:00)

Cosmos 2237 - Pass Details

Date: 08 August 2020
Orbit: 847 x 855 km, 70.8° (Epoch: 24 September)

Event Time Altitude Azimuth Distance (km) Brightness Sun altitude
Rises 21:52:10 0° 334° (NNW) 3,432 8.6 -26.9°
Reaches altitude 10° 21:54:38 10° 335° (NNW) 2,492 7.6 -27.1°
Maximum altitude 22:00:23 83° 63° (ENE) 864 4.1 -27.4°
Enters shadow 22:00:34 81° 101° (ESE) 867 4.1 -27.4°
